Flag for Germany Weather past 2 weeks in Kaiserslautern, Rhineland-Palatinate, Germany

Now
52 °F

Fog.


Feels Like: 52 °F
Forecast: 48 / 66 °F
Wind: No wind

Location: Ramstein

Current Time: Oct 2, 2014 at 10:39:28 AM

Latest Report: Oct 2, 2014 at 10:03 AM


Visibility: 0 mi

Pressure: 30.41 "Hg

Humidity: 100%

Dew point: 52 °F

Location of KaiserslauternLocation

Historic Weather in Kaiserslautern — Graph

°F

Kaiserslautern temperature yesterday

Maximum temperature yesterday: 72 °F (at 2:58 PM)
Minimum temperature yesterday: 50 °F (at 3:04 AM)
Average temperature yesterday: 58 °F

Past Weeks' High & Low Weather Summary

 TemperatureHumidityPressure
High79 °F (Sep 18, 2:58 PM)100% (Sep 17, 9:03 AM)30.40 "Hg (Sep 17, 9:03 AM)
Low36 °F (Sep 24, 3:58 AM)44% (Sep 17, 2:59 PM)29.84 "Hg (Sep 18, 2:58 AM)
Average57 °F80%30.14 "Hg
* Reported Sep 17 9:03 AM — Oct 2 9:01 AM, Kaiserslautern, Weather by CustomWeather, © 2014

Note: Actual official high and low records may vary slightly from our data, if they occured in-between our weather recording intervals... More about our weather records

Advertising

Kaiserslautern weather history for previous 24 hours

 ConditionsComfort  
Time TempWeatherWind HumidityBarometerVisibility
9:01 AM
Oct 2
50 °FFog.1 mph100%30.40 "Hg1 mi
8:00 AM46 °FFog.No wind100%30.39 "Hg1 mi
7:58 AM46 °FFog.No wind93%30.40 "Hg1 mi
6:58 AM44 °FClear.No wind100%30.39 "HgN/A
5:58 AM46 °FClear.No wind100%30.38 "HgN/A
5:04 AM46 °FFog.2 mph100%30.37 "Hg1 mi
4:58 AM46 °FFog.No wind100%30.38 "Hg2 mi
4:02 AM50 °FCool.2 mph100%30.37 "HgN/A
3:58 AM50 °FFog.No wind100%30.37 "Hg0 mi
3:01 AM46 °FFog.2 mph100%30.37 "Hg1 mi
2:58 AM48 °FFog.2 mph94%30.37 "Hg1 mi
1:58 AM46 °FFog.2 mph100%30.37 "Hg2 mi
12:58 AM50 °FClear.2 mph96%30.37 "HgN/A
11:58 PM
Oct 1
53 °FClear.No wind97%30.38 "HgN/A
11:04 PM52 °FFog.3 mph94%30.36 "Hg2 mi
9:58 PM55 °FClear.1 mph92%30.37 "HgN/A
8:58 PM59 °FPassing clouds.No wind88%30.36 "HgN/A
7:58 PM59 °FPassing clouds.2 mph90%30.34 "HgN/A
6:58 PM63 °FSunny.No wind77%30.32 "HgN/A
5:58 PM69 °FSunny.3 mph54%30.31 "HgN/A
4:58 PM70 °FPassing clouds.5 mph49%30.31 "HgN/A
3:58 PM70 °FScattered clouds.6 mph52%30.31 "HgN/A
2:58 PM72 °FPassing clouds.6 mph51%30.31 "HgN/A
1:58 PM71 °FSunny.2 mph53%30.32 "HgN/A
12:58 PM66 °FSunny.2 mph93%30.34 "HgN/A
11:58 AM61 °FPassing clouds.No wind100%30.34 "HgN/A
11:02 AM57 °FFog.1 mph100%30.35 "Hg3 mi
Weather by CustomWeather, © 2014

See weather overviewHow to use our weather pages